KLM671 EHAM-CYUL

Flight info

Callsign KLM671
Flight time N/A
Altitude 38000
Route BERGI L60 OTBED DCT ABLUC DCT OZRAT DCT WETFI DCT REVNU DCT RESNO/M082F380 DCT 56N020W 56N030W 56N040W 55N050W DCT LOMSI/N0467F380 N668A TAFFY DCT KEBIG ROCKT3
Aircraft B772/H-SDE2E3FGHIJ5LORVWXY/LB1D1

Departure

Time 2026-05-06 11:05
Airport Amsterdam Airport Schiphol (EHAM)

Arrival

Time N/A
Airport Montreal / Pierre Elliott Trudeau International Airport (CYUL)
Time Latitude Longitude Altitude Speed Heading
2026-05-06 10:26 52.31165 4.76783 5 ft 0 kts 303°
2026-05-06 10:46 52.31160 4.76796 4 ft 4 kts 303°
2026-05-06 10:46 52.31145 4.76832 6 ft 4 kts 308°
2026-05-06 10:46 52.31131 4.76858 7 ft 3 kts 314°
2026-05-06 10:46 52.31119 4.76878 4 ft 4 kts 323°
2026-05-06 10:47 52.31107 4.76893 5 ft 4 kts 15°
2026-05-06 10:47 52.31106 4.76894 5 ft 3 kts 33°
2026-05-06 10:47 52.31129 4.76918 4 ft 4 kts 33°
2026-05-06 10:47 52.31151 4.76942 3 ft 4 kts 33°
2026-05-06 10:48 52.31161 4.76953 3 ft 0 kts 33°
2026-05-06 10:51 52.31183 4.76976 4 ft 12 kts 33°
2026-05-06 10:51 52.31251 4.77049 3 ft 12 kts 34°
2026-05-06 10:52 52.31318 4.77123 3 ft 12 kts 33°
2026-05-06 10:52 52.31339 4.77146 3 ft 12 kts 33°
2026-05-06 10:52 52.31416 4.77190 3 ft 12 kts
2026-05-06 10:52 52.31478 4.77122 3 ft 12 kts 285°
2026-05-06 10:53 52.31480 4.76982 3 ft 15 kts 268°
2026-05-06 10:53 52.31473 4.76737 3 ft 24 kts 267°
2026-05-06 10:53 52.31463 4.76460 3 ft 24 kts 266°
2026-05-06 10:53 52.31454 4.76183 3 ft 24 kts 266°
2026-05-06 10:54 52.31443 4.75906 3 ft 24 kts 266°
2026-05-06 10:54 52.31433 4.75630 3 ft 24 kts 266°
2026-05-06 10:54 52.31422 4.75353 3 ft 24 kts 267°
2026-05-06 10:54 52.31413 4.75076 3 ft 24 kts 267°
2026-05-06 10:55 52.31405 4.74803 3 ft 24 kts 267°
2026-05-06 10:55 52.31397 4.74526 3 ft 24 kts 267°
2026-05-06 10:55 52.31388 4.74285 3 ft 16 kts 266°
2026-05-06 10:55 52.31368 4.74156 4 ft 11 kts 223°
2026-05-06 10:56 52.31292 4.74130 3 ft 17 kts 185°
2026-05-06 10:56 52.31115 4.74114 3 ft 27 kts 184°
2026-05-06 10:56 52.30925 4.74095 3 ft 27 kts 183°
2026-05-06 10:56 52.30763 4.74082 3 ft 20 kts 183°
2026-05-06 10:57 52.30623 4.74069 3 ft 20 kts 183°
2026-05-06 10:57 52.30481 4.74056 3 ft 20 kts 183°
2026-05-06 10:57 52.30382 4.74045 3 ft 10 kts 192°
2026-05-06 10:57 52.30343 4.74020 5 ft 5 kts 203°
2026-05-06 10:58 52.30300 4.73990 5 ft 12 kts 203°
2026-05-06 10:58 52.30241 4.73939 3 ft 9 kts 216°
2026-05-06 10:58 52.30213 4.73901 3 ft 6 kts 224°
2026-05-06 10:58 52.30189 4.73813 3 ft 11 kts 272°
2026-05-06 10:59 52.30225 4.73744 2 ft 1 kts 356°
2026-05-06 11:04 52.30244 4.73744 1 ft 13 kts
2026-05-06 11:05 52.30485 4.73764 2 ft 67 kts
2026-05-06 11:05 52.31178 4.73828 2 ft 133 kts
2026-05-06 11:05 52.32270 4.73905 257 ft 166 kts
2026-05-06 11:05 52.33396 4.73922 1149 ft 161 kts 359°
2026-05-06 11:06 52.34515 4.73421 1851 ft 170 kts 342°
2026-05-06 11:06 52.35713 4.72694 2154 ft 197 kts 343°
2026-05-06 11:06 52.37083 4.71896 2426 ft 220 kts 343°
2026-05-06 11:06 52.38588 4.71034 2730 ft 242 kts 343°
2026-05-06 11:07 52.40207 4.70116 3320 ft 249 kts 343°
2026-05-06 11:07 52.41805 4.69006 3904 ft 253 kts 329°
2026-05-06 11:07 52.43210 4.67212 4523 ft 259 kts 321°
2026-05-06 11:07 52.44612 4.65314 5178 ft 264 kts 322°
2026-05-06 11:08 52.46087 4.63483 5826 ft 268 kts 324°
2026-05-06 11:08 52.47637 4.61721 6435 ft 274 kts 326°
2026-05-06 11:08 52.49245 4.60016 7076 ft 275 kts 328°
2026-05-06 11:08 52.50882 4.58363 7733 ft 277 kts 328°
2026-05-06 11:09 52.52544 4.56741 8359 ft 279 kts 329°
2026-05-06 11:09 52.54227 4.55135 8955 ft 281 kts 329°
2026-05-06 11:09 52.55911 4.53549 9584 ft 284 kts 329°
2026-05-06 11:09 52.57633 4.51940 10116 ft 287 kts 329°
2026-05-06 11:10 52.59427 4.50271 10304 ft 305 kts 329°
2026-05-06 11:10 52.61336 4.48498 10445 ft 325 kts 329°
2026-05-06 11:10 52.63364 4.46617 10688 ft 342 kts 329°
2026-05-06 11:10 52.65464 4.44671 11275 ft 349 kts 329°
2026-05-06 11:11 52.67601 4.42690 11986 ft 355 kts 329°
2026-05-06 11:11 52.69761 4.40684 12844 ft 358 kts 329°
2026-05-06 11:11 52.71937 4.38661 13690 ft 359 kts 328°
2026-05-06 11:11 52.73947 4.36211 14276 ft 362 kts 312°
2026-05-06 11:12 52.75455 4.32866 14929 ft 365 kts 297°
2026-05-06 11:12 52.76430 4.29003 15586 ft 366 kts 288°
2026-05-06 11:12 52.77239 4.24973 16204 ft 372 kts 287°
2026-05-06 11:12 52.78032 4.20891 16946 ft 374 kts 287°
2026-05-06 11:13 52.78818 4.16831 17634 ft 378 kts 287°
2026-05-06 11:13 52.79628 4.12671 18269 ft 383 kts 287°
2026-05-06 11:13 52.80455 4.08467 18839 ft 386 kts 287°
2026-05-06 11:13 52.81292 4.04238 19443 ft 389 kts 287°
2026-05-06 11:14 52.82138 3.99980 20020 ft 391 kts 286°
2026-05-06 11:14 52.82991 3.95692 20599 ft 394 kts 286°
2026-05-06 11:14 52.83852 3.91363 21142 ft 397 kts 286°
2026-05-06 11:14 52.84719 3.86996 21695 ft 400 kts 286°
2026-05-06 11:15 52.85589 3.82604 22234 ft 403 kts 286°
2026-05-06 11:15 52.86465 3.78173 22788 ft 406 kts 286°
2026-05-06 11:15 52.87332 3.73781 23332 ft 409 kts 286°
2026-05-06 11:15 52.88226 3.69237 23808 ft 411 kts 286°
2026-05-06 11:16 52.89102 3.64776 24264 ft 414 kts 285°
2026-05-06 11:16 52.89992 3.60231 24719 ft 416 kts 285°
2026-05-06 11:16 52.90884 3.55669 25197 ft 418 kts 285°
2026-05-06 11:16 52.91781 3.51067 25642 ft 420 kts 285°
2026-05-06 11:17 52.92680 3.46444 26075 ft 423 kts 285°
2026-05-06 11:17 52.93585 3.41778 26502 ft 425 kts 285°
2026-05-06 11:17 52.94490 3.37101 26933 ft 428 kts 285°
2026-05-06 11:17 52.95399 3.32390 27360 ft 430 kts 285°
2026-05-06 11:18 52.96312 3.27656 27770 ft 433 kts 285°
2026-05-06 11:18 52.97230 3.22882 28173 ft 435 kts 285°
2026-05-06 11:18 52.98150 3.18079 28565 ft 438 kts 285°
2026-05-06 11:18 52.99072 3.13237 28972 ft 440 kts 285°
2026-05-06 11:19 52.99995 3.08371 29351 ft 443 kts 285°
2026-05-06 11:19 53.00921 3.03482 29729 ft 446 kts 285°
2026-05-06 11:19 53.01839 2.98621 30076 ft 448 kts 285°
2026-05-06 11:19 53.02774 2.93661 30379 ft 451 kts 285°
2026-05-06 11:20 53.03713 2.88666 30651 ft 454 kts 285°
2026-05-06 11:20 53.04654 2.83651 30925 ft 456 kts 285°
2026-05-06 11:20 53.05599 2.78596 31189 ft 459 kts 285°
2026-05-06 11:20 53.06547 2.73517 31434 ft 461 kts 285°
2026-05-06 11:21 53.07502 2.68384 31672 ft 464 kts 285°
2026-05-06 11:21 53.08454 2.63254 31900 ft 466 kts 285°
2026-05-06 11:21 53.09412 2.58080 32126 ft 468 kts 285°
2026-05-06 11:21 53.10364 2.52901 32439 ft 468 kts 284°
2026-05-06 11:22 53.11144 2.47659 32758 ft 466 kts 279°
2026-05-06 11:22 53.11626 2.42339 33064 ft 465 kts 276°
2026-05-06 11:22 53.12048 2.36990 33352 ft 465 kts 276°
2026-05-06 11:22 53.12452 2.31721 33654 ft 466 kts 276°